When you browse on this site, cookies collect data to enhance your experience and personalize the content and advertising you see.
Visit our Privacy Policy to learn more. By continuing to use the site, you agree to this use of cookies and data.
  • In Switzerland
  • List of Countries
  • For 7 days
  • Water Temperature
  • Weather Map
  • Weather Widgets
  • user-avatar
    Login

    Hourly Weather Uige

    Today, 19 October, Saturday

    Time Temperature Precipitation Wind Pressure Humidity
    00:00 +20°C° 0.1 mm 0 mps 691 mmHg 97%
    01:00 +20°C° 0.1 mm 0 mps 691 mmHg 98%
    02:00 +20°C° 0 mm 0 mps 690 mmHg 98%
    03:00 +22°C° 0 mm 1 mps 690 mmHg 98%
    04:00 +22°C° 0 mm 1 mps 690 mmHg 98%
    05:00 +23°C° 0 mm 1 mps 690 mmHg 97%
    06:00 +23°C° 0 mm 1 mps 691 mmHg 96%
    07:00 +23°C° 0 mm 1 mps 691 mmHg 96%
    08:00 +24°C° 0 mm 1 mps 691 mmHg 89%
    09:00 +26°C° 0 mm 1 mps 691 mmHg 83%
    10:00 +27°C° 0 mm 1 mps 691 mmHg 77%
    11:00 +28°C° 0.2 mm 1 mps 691 mmHg 73%
    12:00 +29°C° 0.2 mm 1 mps 691 mmHg 69%
    13:00 +30°C° 0.2 mm 1 mps 690 mmHg 64%
    14:00 +29°C° 2.1 mm 1 mps 689 mmHg 72%
    15:00 +27°C° 2.1 mm 1 mps 689 mmHg 79%
    16:00 +26°C° 2.1 mm 2 mps 688 mmHg 87%
    17:00 +25°C° 1.1 mm 1 mps 688 mmHg 89%
    18:00 +24°C° 1.1 mm 1 mps 689 mmHg 91%
    19:00 +21°C° 1.1 mm 0 mps 689 mmHg 93%
    20:00 +21°C° 0.4 mm 0 mps 690 mmHg 94%
    21:00 +21°C° 0.4 mm 0 mps 690 mmHg 96%
    22:00 +20°C° 0.4 mm 0 mps 691 mmHg 97%
    23:00 +20°C° 0 mm 0 mps 691 mmHg 97%

    Tomorrow, 20 October, Sunday

    Time Temperature Precipitation Wind Pressure Humidity
    00:00 +20°C° 0 mm 0 mps 690 mmHg 98%
    01:00 +20°C° 0 mm 0 mps 690 mmHg 99%
    02:00 +20°C° 0 mm 0 mps 690 mmHg 98%
    03:00 +20°C° 0 mm 0 mps 690 mmHg 98%
    04:00 +20°C° 0 mm 0 mps 690 mmHg 97%
    05:00 +22°C° 0 mm 1 mps 691 mmHg 96%
    06:00 +23°C° 0 mm 1 mps 691 mmHg 96%
    07:00 +23°C° 0 mm 1 mps 692 mmHg 95%
    08:00 +24°C° 0 mm 1 mps 692 mmHg 92%
    09:00 +24°C° 0 mm 1 mps 692 mmHg 89%
    10:00 +25°C° 0 mm 1 mps 692 mmHg 86%
    11:00 +26°C° 0 mm 1 mps 691 mmHg 83%
    12:00 +26°C° 0 mm 1 mps 691 mmHg 80%
    13:00 +27°C° 0 mm 1 mps 690 mmHg 77%
    14:00 +26°C° 0.1 mm 1 mps 689 mmHg 78%
    15:00 +26°C° 0.1 mm 1 mps 689 mmHg 80%
    16:00 +26°C° 0.1 mm 1 mps 688 mmHg 81%
    17:00 +25°C° 0.2 mm 1 mps 689 mmHg 86%
    18:00 +24°C° 0.2 mm 1 mps 689 mmHg 90%
    19:00 +21°C° 0.2 mm 0 mps 690 mmHg 94%
    20:00 +20°C° 0 mm 0 mps 690 mmHg 95%
    21:00 +20°C° 0 mm 0 mps 691 mmHg 96%
    22:00 +20°C° 0 mm 0 mps 691 mmHg 96%
    23:00 +20°C° 0 mm 0 mps 691 mmHg 97%

    Day after tomorrow, 21 October, Monday

    Time Temperature Precipitation Wind Pressure Humidity
    00:00 +20°C° 0 mm 0 mps 691 mmHg 97%
    01:00 +19°C° 0 mm 0 mps 690 mmHg 97%
    02:00 +19°C° 0 mm 0 mps 690 mmHg 98%
    03:00 +19°C° 0 mm 0 mps 690 mmHg 98%
    04:00 +21°C° 0 mm 1 mps 690 mmHg 99%
    05:00 +22°C° 0 mm 1 mps 690 mmHg 97%
    06:00 +22°C° 0 mm 1 mps 691 mmHg 96%
    07:00 +23°C° 0 mm 1 mps 691 mmHg 95%
    08:00 +24°C° 0 mm 1 mps 691 mmHg 90%
    09:00 +25°C° 0 mm 1 mps 692 mmHg 86%
    10:00 +25°C° 0 mm 1 mps 692 mmHg 82%
    11:00 +26°C° 0.1 mm 1 mps 691 mmHg 80%
    12:00 +26°C° 0.1 mm 1 mps 690 mmHg 78%
    13:00 +27°C° 0.1 mm 1 mps 690 mmHg 75%
    14:00 +27°C° 0.1 mm 1 mps 689 mmHg 74%
    15:00 +27°C° 0.1 mm 1 mps 689 mmHg 73%
    16:00 +28°C° 0.1 mm 1 mps 689 mmHg 72%
    17:00 +26°C° 1.2 mm 1 mps 689 mmHg 79%
    18:00 +25°C° 1.2 mm 1 mps 689 mmHg 86%
    19:00 +21°C° 1.2 mm 0 mps 689 mmHg 93%
    20:00 +21°C° 0.1 mm 0 mps 690 mmHg 94%
    21:00 +21°C° 0.1 mm 0 mps 690 mmHg 95%
    22:00 +20°C° 0.1 mm 0 mps 691 mmHg 96%
    23:00 +20°C° 0 mm 0 mps 690 mmHg 97%

    22 October, Tuesday

    Time Temperature Precipitation Wind Pressure Humidity
    00:00 +20°C° 0 mm 0 mps 690 mmHg 98%
    01:00 +20°C° 0 mm 0 mps 690 mmHg 98%
    02:00 +20°C° 0 mm 0 mps 690 mmHg 98%
    03:00 +22°C° 0 mm 1 mps 690 mmHg 98%
    04:00 +22°C° 0 mm 1 mps 690 mmHg 98%
    05:00 +22°C° 0.1 mm 1 mps 690 mmHg 98%
    06:00 +22°C° 0.1 mm 1 mps 690 mmHg 98%
    07:00 +22°C° 0.1 mm 1 mps 691 mmHg 97%
    08:00 +23°C° 0.2 mm 1 mps 691 mmHg 95%
    09:00 +24°C° 0.2 mm 1 mps 691 mmHg 92%
    10:00 +24°C° 0.2 mm 1 mps 692 mmHg 89%
    11:00 +25°C° 0.4 mm 2 mps 691 mmHg 86%
    12:00 +26°C° 0.4 mm 2 mps 690 mmHg 84%
    13:00 +26°C° 0.4 mm 2 mps 689 mmHg 81%
    14:00 +26°C° 0.6 mm 2 mps 689 mmHg 80%
    15:00 +26°C° 0.6 mm 2 mps 688 mmHg 79%
    16:00 +26°C° 0.6 mm 2 mps 688 mmHg 79%
    17:00 +25°C° 0.1 mm 1 mps 688 mmHg 84%
    18:00 +24°C° 0.1 mm 1 mps 689 mmHg 89%
    19:00 +23°C° 0.1 mm 1 mps 689 mmHg 95%
    20:00 +23°C° 0.2 mm 1 mps 689 mmHg 96%
    21:00 +23°C° 0.2 mm 1 mps 690 mmHg 97%
    22:00 +22°C° 0.2 mm 1 mps 690 mmHg 97%
    23:00 +22°C° 0 mm 1 mps 690 mmHg 98%

    23 October, Wednesday

    Time Temperature Precipitation Wind Pressure Humidity
    00:00 +22°C° 0 mm 1 mps 690 mmHg 98%
    01:00 +22°C° 0 mm 1 mps 689 mmHg 98%
    02:00 +22°C° 0.1 mm 1 mps 689 mmHg 98%
    03:00 +20°C° 0.1 mm 0 mps 689 mmHg 98%
    04:00 +20°C° 0.1 mm 0 mps 689 mmHg 98%
    05:00 +20°C° 0 mm 0 mps 689 mmHg 97%
    06:00 +22°C° 0 mm 1 mps 689 mmHg 96%
    07:00 +22°C° 0 mm 1 mps 690 mmHg 95%
    08:00 +23°C° 0 mm 1 mps 690 mmHg 92%
    09:00 +22°C° 0 mm 0 mps 690 mmHg 90%
    10:00 +22°C° 0 mm 0 mps 690 mmHg 87%
    11:00 +26°C° 0.4 mm 1 mps 690 mmHg 81%
    12:00 +27°C° 0.4 mm 1 mps 689 mmHg 75%
    13:00 +28°C° 0.4 mm 2 mps 689 mmHg 70%
    14:00 +27°C° 0.4 mm 1 mps 688 mmHg 74%
    15:00 +26°C° 0.4 mm 1 mps 688 mmHg 79%
    16:00 +25°C° 0.4 mm 1 mps 687 mmHg 83%
    17:00 +24°C° 0.2 mm 1 mps 687 mmHg 87%
    18:00 +23°C° 0.2 mm 1 mps 688 mmHg 91%
    19:00 +20°C° 0.2 mm 0 mps 688 mmHg 94%
    20:00 +20°C° 0.1 mm 0 mps 689 mmHg 95%
    21:00 +22°C° 0.1 mm 1 mps 689 mmHg 97%
    22:00 +22°C° 0.1 mm 1 mps 690 mmHg 98%
    23:00 +20°C° 0 mm 0 mps 690 mmHg 97%

    24 October, Thursday

    Time Temperature Precipitation Wind Pressure Humidity
    00:00 +20°C° 0 mm 0 mps 689 mmHg 97%
    01:00 +20°C° 0 mm 0 mps 689 mmHg 97%
    02:00 +20°C° 0 mm 0 mps 689 mmHg 97%
    03:00 +20°C° 0 mm 0 mps 689 mmHg 97%
    04:00 +22°C° 0 mm 1 mps 689 mmHg 97%
    05:00 +20°C° 0 mm 0 mps 689 mmHg 96%
    06:00 +20°C° 0 mm 0 mps 690 mmHg 95%
    07:00 +20°C° 0 mm 0 mps 690 mmHg 94%
    08:00 +22°C° 0 mm 0 mps 691 mmHg 87%
    09:00 +24°C° 0 mm 0 mps 691 mmHg 81%
    10:00 +26°C° 0 mm 0 mps 692 mmHg 74%
    11:00 +25°C° 1.7 mm 0 mps 691 mmHg 78%
    12:00 +26°C° 1.7 mm 1 mps 690 mmHg 83%
    13:00 +25°C° 1.7 mm 1 mps 690 mmHg 88%
    14:00 +25°C° 1.6 mm 1 mps 689 mmHg 89%
    15:00 +24°C° 1.6 mm 1 mps 689 mmHg 91%
    16:00 +23°C° 1.6 mm 2 mps 689 mmHg 93%
    17:00 +23°C° 0 mm 1 mps 689 mmHg 93%
    18:00 +22°C° 0 mm 1 mps 689 mmHg 93%
    19:00 +20°C° 0 mm 0 mps 689 mmHg 93%
    20:00 +20°C° 0 mm 0 mps 689 mmHg 93%
    21:00 +20°C° 0 mm 0 mps 690 mmHg 93%
    22:00 +20°C° 0 mm 0 mps 690 mmHg 93%
    23:00 +20°C° 0 mm 0 mps 690 mmHg 93%
    Show more